AAL901 KMIA-KMCO

Flight info

Callsign AAL901
Flight time N/A
Altitude 20000
Route FLMGO2 WAPOM MUNGI1
Aircraft A20N/M-SDE2E3FGHIRWXY/LB1

Departure

Time 2026-05-05 00:01
Airport Miami International Airport (KMIA)

Arrival

Time N/A
Airport Orlando International Airport (KMCO)
Time Latitude Longitude Altitude Speed Heading
2026-05-04 23:32 25.79783 -80.27777 21 ft 0 kts 177°
2026-05-04 23:50 25.79790 -80.27777 21 ft 2 kts 177°
2026-05-04 23:51 25.79807 -80.27778 23 ft 2 kts 177°
2026-05-04 23:51 25.79824 -80.27779 23 ft 2 kts 177°
2026-05-04 23:51 25.79841 -80.27780 22 ft 2 kts 184°
2026-05-04 23:51 25.79855 -80.27773 22 ft 2 kts 250°
2026-05-04 23:52 25.79856 -80.27770 22 ft 0 kts 262°
2026-05-04 23:53 25.79857 -80.27770 24 ft 0 kts 266°
2026-05-04 23:53 25.79856 -80.27773 22 ft 2 kts 266°
2026-05-04 23:53 25.79867 -80.27812 23 ft 8 kts 304°
2026-05-04 23:54 25.79906 -80.27877 21 ft 11 kts 329°
2026-05-04 23:54 25.79987 -80.27894 20 ft 0 kts 356°
2026-05-04 23:54 25.80005 -80.27897 20 ft 5 kts 345°
2026-05-04 23:54 25.80037 -80.27919 19 ft 7 kts 315°
2026-05-04 23:55 25.80049 -80.27985 19 ft 10 kts 269°
2026-05-04 23:55 25.80046 -80.28081 19 ft 14 kts 268°
2026-05-04 23:55 25.80035 -80.28343 22 ft 20 kts 268°
2026-05-04 23:56 25.80027 -80.28514 24 ft 24 kts 268°
2026-05-04 23:56 25.80020 -80.28697 29 ft 23 kts 266°
2026-05-04 23:56 25.80013 -80.28869 29 ft 22 kts 267°
2026-05-04 23:56 25.80006 -80.29043 28 ft 22 kts 267°
2026-05-04 23:57 25.79999 -80.29210 29 ft 21 kts 268°
2026-05-04 23:57 25.79991 -80.29381 28 ft 23 kts 266°
2026-05-04 23:57 25.79984 -80.29567 20 ft 24 kts 267°
2026-05-04 23:57 25.79977 -80.29752 21 ft 24 kts 266°
2026-05-04 23:58 25.79970 -80.29928 18 ft 19 kts 273°
2026-05-04 23:58 25.79974 -80.29947 18 ft 0 kts 284°
2026-05-04 23:59 25.79983 -80.29988 20 ft 16 kts 285°
2026-05-04 23:59 25.80019 -80.30103 22 ft 12 kts 314°
2026-05-04 23:59 25.80053 -80.30109 23 ft 6 kts 36°
2026-05-04 23:59 25.80073 -80.30047 20 ft 13 kts 88°
2026-05-05 00:00 25.80088 -80.29749 21 ft 72 kts 85°
2026-05-05 00:00 25.80101 -80.29535 21 ft 93 kts 89°
2026-05-05 00:00 25.80136 -80.28844 41 ft 133 kts 83°
2026-05-05 00:00 25.80185 -80.27818 360 ft 146 kts 87°
2026-05-05 00:01 25.80202 -80.26641 813 ft 157 kts 88°
2026-05-05 00:01 25.80177 -80.25407 1402 ft 164 kts 89°
2026-05-05 00:01 25.80101 -80.24097 2064 ft 176 kts 93°
2026-05-05 00:01 25.80103 -80.22676 2568 ft 195 kts 83°
2026-05-05 00:02 25.80273 -80.21124 3096 ft 208 kts 81°
2026-05-05 00:02 25.80618 -80.19481 3507 ft 228 kts 70°
2026-05-05 00:02 25.81387 -80.17912 4119 ft 239 kts 53°
2026-05-05 00:02 25.82680 -80.16609 4521 ft 262 kts 30°
2026-05-05 00:03 25.84411 -80.15930 5249 ft 269 kts
2026-05-05 00:03 25.86293 -80.15761 6087 ft 273 kts
2026-05-05 00:03 25.88206 -80.15717 6908 ft 276 kts 357°
2026-05-05 00:03 25.90118 -80.15980 7692 ft 279 kts 343°
2026-05-05 00:04 25.91999 -80.16576 8506 ft 283 kts 339°
2026-05-05 00:04 25.93894 -80.17250 9344 ft 288 kts 338°
2026-05-05 00:04 25.95816 -80.17938 10189 ft 293 kts 338°
2026-05-05 00:04 25.97803 -80.18688 10646 ft 310 kts 333°
2026-05-05 00:05 25.99707 -80.19918 10999 ft 324 kts 319°
2026-05-05 00:05 26.01454 -80.21550 11566 ft 332 kts 315°
2026-05-05 00:05 26.03182 -80.23273 12271 ft 335 kts 314°
2026-05-05 00:05 26.04921 -80.25017 13030 ft 338 kts 314°
2026-05-05 00:06 26.06681 -80.26778 13802 ft 341 kts 314°
2026-05-05 00:06 26.08453 -80.28544 14504 ft 343 kts 314°
2026-05-05 00:06 26.10237 -80.30321 15223 ft 345 kts 314°
2026-05-05 00:06 26.12030 -80.32105 15940 ft 347 kts 314°
2026-05-05 00:07 26.13836 -80.33901 16653 ft 349 kts 314°
2026-05-05 00:07 26.15650 -80.35707 17348 ft 351 kts 313°
2026-05-05 00:07 26.17476 -80.37524 18043 ft 353 kts 313°
2026-05-05 00:07 26.19320 -80.39360 18641 ft 356 kts 313°
2026-05-05 00:08 26.21170 -80.41202 19184 ft 359 kts 314°
2026-05-05 00:08 26.23174 -80.42902 19732 ft 367 kts 323°
2026-05-05 00:08 26.25445 -80.44265 20282 ft 375 kts 328°
2026-05-05 00:08 26.27818 -80.45537 20740 ft 380 kts 329°
2026-05-05 00:09 26.30182 -80.46777 20969 ft 380 kts 329°
2026-05-05 00:09 26.32577 -80.48036 21016 ft 380 kts 329°
2026-05-05 00:09 26.34972 -80.49301 21018 ft 381 kts 329°
2026-05-05 00:09 26.37370 -80.50571 21016 ft 381 kts 329°
2026-05-05 00:10 26.39766 -80.51842 21006 ft 382 kts 329°
2026-05-05 00:10 26.42164 -80.53117 21005 ft 382 kts 329°
2026-05-05 00:10 26.44561 -80.54393 21012 ft 381 kts 328°
2026-05-05 00:10 26.46954 -80.55665 21017 ft 381 kts 329°
2026-05-05 00:11 26.49436 -80.56750 21022 ft 385 kts 336°
2026-05-05 00:11 26.52011 -80.57618 21012 ft 387 kts 338°
2026-05-05 00:11 26.54604 -80.58439 21015 ft 387 kts 338°
2026-05-05 00:11 26.57197 -80.59254 21031 ft 387 kts 338°
2026-05-05 00:12 26.59789 -80.60071 21017 ft 387 kts 338°
2026-05-05 00:12 26.62385 -80.60892 21017 ft 387 kts 338°
2026-05-05 00:12 26.64979 -80.61714 21014 ft 387 kts 338°
2026-05-05 00:12 26.67571 -80.62537 21015 ft 387 kts 338°
2026-05-05 00:13 26.70163 -80.63361 21018 ft 387 kts 338°
2026-05-05 00:13 26.72756 -80.64186 21017 ft 387 kts 338°
2026-05-05 00:13 26.75349 -80.65011 21018 ft 387 kts 338°
2026-05-05 00:13 26.77942 -80.65837 21018 ft 387 kts 338°
2026-05-05 00:14 26.80535 -80.66664 21021 ft 388 kts 338°
2026-05-05 00:14 26.83128 -80.67490 21020 ft 388 kts 338°
2026-05-05 00:14 26.85726 -80.68308 21018 ft 389 kts 340°
2026-05-05 00:14 26.88438 -80.68589 21023 ft 393 kts 359°
2026-05-05 00:15 26.91083 -80.67935 21016 ft 385 kts 11°
2026-05-05 00:15 26.93551 -80.66892 21015 ft 374 kts 19°
2026-05-05 00:15 26.95836 -80.65567 20977 ft 366 kts 22°
2026-05-05 00:15 26.98054 -80.64195 20612 ft 363 kts 23°
2026-05-05 00:16 27.00263 -80.62825 20176 ft 362 kts 23°
2026-05-05 00:16 27.02466 -80.61463 19772 ft 360 kts 23°
2026-05-05 00:16 27.04655 -80.60114 19387 ft 358 kts 23°
2026-05-05 00:16 27.06833 -80.58775 19098 ft 355 kts 23°
2026-05-05 00:17 27.09004 -80.57446 19031 ft 355 kts 23°
2026-05-05 00:17 27.11174 -80.56118 19026 ft 356 kts 23°
2026-05-05 00:17 27.13351 -80.54788 19026 ft 356 kts 22°
2026-05-05 00:17 27.15526 -80.53458 19038 ft 356 kts 23°
2026-05-05 00:18 27.17704 -80.52135 19032 ft 356 kts 22°
2026-05-05 00:18 27.19886 -80.50814 19028 ft 356 kts 22°
2026-05-05 00:18 27.22067 -80.49496 19027 ft 356 kts 22°
2026-05-05 00:18 27.24249 -80.48177 19028 ft 356 kts 22°
2026-05-05 00:19 27.26429 -80.46859 19026 ft 356 kts 22°
2026-05-05 00:19 27.28612 -80.45540 19029 ft 356 kts 22°
2026-05-05 00:19 27.30792 -80.44223 19029 ft 356 kts 22°
2026-05-05 00:19 27.32974 -80.42905 19029 ft 356 kts 22°
2026-05-05 00:20 27.35156 -80.41587 19029 ft 356 kts 22°
2026-05-05 00:20 27.37339 -80.40269 19029 ft 356 kts 22°
2026-05-05 00:20 27.39522 -80.38949 19031 ft 356 kts 22°
2026-05-05 00:20 27.41705 -80.37630 19032 ft 356 kts 22°
2026-05-05 00:21 27.43887 -80.36312 19045 ft 356 kts 22°
2026-05-05 00:21 27.46071 -80.34992 19045 ft 356 kts 23°
2026-05-05 00:21 27.48104 -80.33377 19043 ft 364 kts 41°
2026-05-05 00:21 27.49558 -80.31024 19044 ft 371 kts 64°
2026-05-05 00:22 27.50203 -80.28211 19046 ft 374 kts 86°
2026-05-05 00:22 27.49947 -80.25317 19045 ft 372 kts 109°
2026-05-05 00:22 27.48827 -80.22733 19044 ft 365 kts 131°
2026-05-05 00:22 27.47018 -80.20808 19044 ft 354 kts 154°